IUS DEB, 26078

Orbit data source: Space-Track

IUS DEB, 26078 is space debris originally from a launch on Fri, 23 Jul 1999 UTC launched from the Air Force Eastern Test Range (AFETR). Debris objects in space refer to the collection of defunct objects orbiting the Earth. Examples of debris include non-operational satellites, rocket bodies, and fragments generated from explosions, collisions, or faulty payload assembly.

Loading next visibility...
Identifier
26078, 1999-040F
Orbit
Active
Country
Flag of USUS
Related business
Manufacturer
Boeing/Kent
Mission
Spacecraft
Bus & Motor
Unknown
Mass
Unknown
Launch date (UTC)
1999-07-23 (27 years ago)
Launch vehicle
Unknown
Launch site
Air Force Eastern Test Range (AFETR)
Object type
Payload
Rocket body
Debris
Shape & HBR
Unknown shape, 0.1 m
Radar Cross Section
Small (<0.1 m²)

Expand to show TLE details & history
Last TLE update: 5 days ago

TLE from 5 days ago
0 IUS DEB
1 26078U 99040F   26260.84188584  .00005608  00000-0  77402-3 0  9999
2 26078  28.4069 121.5676 4386813 116.2216 294.9627  6.67366939317245
Epoch: 2026-09-17T20:12Z
TLE epoch observation values (Epoch: 2026-09-17T20:12:18.936Z)
Latitude
-0.00002°
Longitude
-178.28467°
Altitude
5,553.427 km
Speed
5.777 km/s
True Right ascension
08h 06m 16s
True Declination
0° 00' 00"
Sunlit
Object was in daylight at epoch
Visualization orbit readout
Latitude
Unknown
Longitude
Unknown
Altitude
Unknown
Speed
Unknown
Apparent Right ascension
Unknown
Apparent Declination
Unknown
Sunlit
N/A
Visualization observer readout
Local Sidereal Time
16:02:55
Azimuth
Unknown
Elevation
Unknown
Doppler factor
Unknown
Orbital elements
Apogee altitude
10,771.154 km
Perigee altitude
312.864 km
Semi-major axis
11,920.146 km
Eccentricity
0.43868
Inclination
28.4069°
RAAN
121.5676°
Arg. of periapsis
116.2216°
True anomaly
243.82596°
Mean anomaly
294.9627°
Eccentric anomaly
269.82823°
Mean motion
1.66771 °/min
Orbital period
215.86 mins
BSTAR
0.00077402
Loading maneuver chart data...
Computing Atmospheric mass density...
Loading historical data...
Loading historical data...
Loading historical data...
Loading historical data...
Loading historical data...
Loading historical data...
Loading historical data...

Documentation

Showing up to 5 results
|